Torna al catalogo

STARLINK-34635

AttivoComunicazioniVLEO
NORAD 64761·PAYLOAD·🇺🇸 United States

Lanciato Jul 8, 2025 da Cape Canaveral Space Force Station

Loading…

Prossimi Passaggi (prossime 24 ore)

TLE

AggiornatoSource: CelesTrak SupGP

Epoca: Sep 14, 2026, 20:44 UTC

1 64761C 25147G   26257.86437500  .00023431  00000+0  69305-3 0  2573
2 64761  53.1584  80.2879 0001449  86.8732  84.2251 15.34342862    19

Traccia STARLINK-34635 in tempo reale con AllMySat

Download on the App Store